Location: Bintulu
(3.1667°N, 113.0333°E)
Time: 04:12:19
(UTC+00:00)

USA 290 - Pass Details

Date: 13 December 2025
Orbit: 396 x 415 km, 73.6° (Epoch: 30 October)

Event Time Altitude Azimuth Distance (km) Brightness Sun altitude
Rises 21:58:34 0° 184° (S) 2,298 6.3 -6.7°
Reaches altitude 10° 22:00:39 10° 177° (S) 1,440 5.3 -6.2°
Maximum altitude 22:03:41 45° 103° (ESE) 552 3.5 -5.5°
Drops below altitude 10° 22:06:43 10° 28° (NNE) 1,441 5.0 -4.8°
Sets 22:08:47 0° 22° (NNE) 2,299 6.0 -4.4°
